Time,TemperatureF,DewpointF,PressureIn,WindDirection,WindDirectionDegrees,WindSpeedMPH,WindSpeedGustMPH,Humidity,HourlyPrecipIn,Conditions,Clouds,dailyrainin,SoftwareType,DateUTC
2013-05-29 00:00:00,65.0,-99.9,-100.00,North,-999,-999.0,-999.0,-999,0.00,,,0.06,,2013-05-29 05:00:00,
2013-05-29 00:22:00,65.0,-99.9,-100.00,North,-999,-999.0,-999.0,-999,0.00,,,0.06,,2013-05-29 05:22:00,
2013-05-29 00:33:00,65.0,-99.9,-100.00,North,-999,-999.0,-999.0,-999,0.00,,,0.06,,2013-05-29 05:33:00,
2013-05-29 00:42:00,65.0,-99.9,-100.00,North,-999,-999.0,-999.0,-999,0.00,,,0.06,,2013-05-29 05:42:00,
2013-05-29 00:52:00,65.0,-99.9,-100.00,North,-999,-999.0,-999.0,-999,0.00,,,0.06,,2013-05-29 05:52:00,
2013-05-29 01:00:00,64.0,-99.9,-100.00,North,-999,-999.0,-999.0,-999,0.00,,,0.06,,2013-05-29 06:00:00,
2013-05-29 01:22:00,64.0,-99.9,-100.00,North,-999,-999.0,-999.0,-999,0.00,,,0.06,,2013-05-29 06:22:00,
2013-05-29 01:32:00,64.0,-99.9,-100.00,North,-999,-999.0,-999.0,-999,0.00,,,0.06,,2013-05-29 06:32:00,
2013-05-29 01:42:00,64.0,-99.9,-100.00,North,-999,-999.0,-999.0,-999,0.00,,,0.06,,2013-05-29 06:42:00,
2013-05-29 01:52:00,64.0,-99.9,-100.00,North,-999,-999.0,-999.0,-999,0.00,,,0.06,,2013-05-29 06:52:00,
2013-05-29 02:00:00,66.0,-99.9,-100.00,North,-999,-999.0,-999.0,-999,0.00,,,0.01,,2013-05-29 07:00:00,
2013-05-29 02:22:00,66.0,-99.9,-100.00,North,-999,-999.0,-999.0,-999,0.00,,,0.01,,2013-05-29 07:22:00,
2013-05-29 02:35:00,66.0,-99.9,-100.00,North,-999,-999.0,-999.0,-999,0.00,,,0.01,,2013-05-29 07:35:00,
2013-05-29 02:42:00,66.0,-99.9,-100.00,North,-999,-999.0,-999.0,-999,0.00,,,0.01,,2013-05-29 07:42:00,
2013-05-29 02:53:00,66.0,-99.9,-100.00,North,-999,-999.0,-999.0,-999,0.00,,,0.01,,2013-05-29 07:53:00,
2013-05-29 03:00:00,65.0,-99.9,-100.00,North,-999,-999.0,-999.0,-999,0.00,,,0.00,,2013-05-29 08:00:00,
2013-05-29 03:22:00,65.0,-99.9,-100.00,North,-999,-999.0,-999.0,-999,0.00,,,0.00,,2013-05-29 08:22:00,
2013-05-29 03:32:00,65.0,-99.9,-100.00,North,-999,-999.0,-999.0,-999,0.00,,,0.00,,2013-05-29 08:32:00,
2013-05-29 03:42:00,65.0,-99.9,-100.00,North,-999,-999.0,-999.0,-999,0.00,,,0.00,,2013-05-29 08:42:00,
2013-05-29 03:52:00,65.0,-99.9,-100.00,North,-999,-999.0,-999.0,-999,0.00,,,0.00,,2013-05-29 08:52:00,
2013-05-29 04:00:00,65.0,-99.9,-100.00,North,-999,-999.0,-999.0,-999,0.00,,,0.00,,2013-05-29 09:00:00,
2013-05-29 04:22:00,65.0,-99.9,-100.00,North,-999,-999.0,-999.0,-999,0.00,,,0.00,,2013-05-29 09:22:00,
2013-05-29 04:33:00,65.0,-99.9,-100.00,North,-999,-999.0,-999.0,-999,0.00,,,0.00,,2013-05-29 09:33:00,
2013-05-29 04:42:00,65.0,-99.9,-100.00,North,-999,-999.0,-999.0,-999,0.00,,,0.00,,2013-05-29 09:42:00,
2013-05-29 04:53:00,65.0,-99.9,-100.00,North,-999,-999.0,-999.0,-999,0.00,,,0.00,,2013-05-29 09:53:00,
2013-05-29 05:00:00,67.0,-99.9,-100.00,North,-999,-999.0,-999.0,-999,0.00,,,0.00,,2013-05-29 10:00:00,
2013-05-29 05:23:00,67.0,-99.9,-100.00,North,-999,-999.0,-999.0,-999,0.00,,,0.00,,2013-05-29 10:23:00,
2013-05-29 05:33:00,67.0,-99.9,-100.00,North,-999,-999.0,-999.0,-999,0.00,,,0.00,,2013-05-29 10:33:00,
2013-05-29 05:42:00,67.0,-99.9,-100.00,North,-999,-999.0,-999.0,-999,0.00,,,0.00,,2013-05-29 10:42:00,
2013-05-29 05:53:00,67.0,-99.9,-100.00,North,-999,-999.0,-999.0,-999,0.00,,,0.00,,2013-05-29 10:53:00,
2013-05-29 06:00:00,68.0,-99.9,-100.00,North,-999,-999.0,-999.0,-999,0.00,,,0.00,,2013-05-29 11:00:00,
2013-05-29 06:22:00,68.0,-99.9,-100.00,North,-999,-999.0,-999.0,-999,0.00,,,0.00,,2013-05-29 11:22:00,
2013-05-29 06:32:00,68.0,-99.9,-100.00,North,-999,-999.0,-999.0,-999,0.00,,,0.00,,2013-05-29 11:32:00,
2013-05-29 06:42:00,68.0,-99.9,-100.00,North,-999,-999.0,-999.0,-999,0.00,,,0.00,,2013-05-29 11:42:00,
2013-05-29 06:52:00,68.0,-99.9,-100.00,North,-999,-999.0,-999.0,-999,0.00,,,0.00,,2013-05-29 11:52:00,
2013-05-29 07:00:00,71.0,-99.9,-100.00,North,-999,-999.0,-999.0,-999,0.00,,,0.00,,2013-05-29 12:00:00,
2013-05-29 07:22:00,71.0,-99.9,-100.00,North,-999,-999.0,-999.0,-999,0.00,,,0.00,,2013-05-29 12:22:00,
2013-05-29 07:32:00,71.0,-99.9,-100.00,North,-999,-999.0,-999.0,-999,0.00,,,0.00,,2013-05-29 12:32:00,
2013-05-29 07:42:00,71.0,-99.9,-100.00,North,-999,-999.0,-999.0,-999,0.00,,,0.00,,2013-05-29 12:42:00,
2013-05-29 07:52:00,71.0,-99.9,-100.00,North,-999,-999.0,-999.0,-999,0.00,,,0.00,,2013-05-29 12:52:00,
2013-05-29 08:00:00,70.0,-99.9,-100.00,North,-999,-999.0,-999.0,-999,0.00,,,0.00,,2013-05-29 13:00:00,
2013-05-29 08:22:00,70.0,-99.9,-100.00,North,-999,-999.0,-999.0,-999,0.00,,,0.00,,2013-05-29 13:22:00,
2013-05-29 08:32:00,70.0,-99.9,-100.00,North,-999,-999.0,-999.0,-999,0.00,,,0.00,,2013-05-29 13:32:00,
2013-05-29 08:42:00,70.0,-99.9,-100.00,North,-999,-999.0,-999.0,-999,0.00,,,0.00,,2013-05-29 13:42:00,
2013-05-29 08:53:00,70.0,-99.9,-100.00,North,-999,-999.0,-999.0,-999,0.00,,,0.00,,2013-05-29 13:53:00,
2013-05-29 09:00:00,72.0,-99.9,-100.00,North,-999,-999.0,-999.0,-999,0.00,,,0.00,,2013-05-29 14:00:00,
2013-05-29 09:22:00,72.0,-99.9,-100.00,North,-999,-999.0,-999.0,-999,0.00,,,0.00,,2013-05-29 14:22:00,
2013-05-29 09:32:00,72.0,-99.9,-100.00,North,-999,-999.0,-999.0,-999,0.00,,,0.00,,2013-05-29 14:32:00,
2013-05-29 09:42:00,72.0,-99.9,-100.00,North,-999,-999.0,-999.0,-999,0.00,,,0.00,,2013-05-29 14:42:00,
2013-05-29 09:52:00,72.0,-99.9,-100.00,North,-999,-999.0,-999.0,-999,0.00,,,0.00,,2013-05-29 14:52:00,
2013-05-29 10:00:00,72.0,-99.9,-100.00,North,-999,-999.0,-999.0,-999,0.00,,,0.00,,2013-05-29 15:00:00,
2013-05-29 10:22:00,72.0,-99.9,-100.00,North,-999,-999.0,-999.0,-999,0.00,,,0.00,,2013-05-29 15:22:00,
2013-05-29 10:33:00,72.0,-99.9,-100.00,North,-999,-999.0,-999.0,-999,0.00,,,0.00,,2013-05-29 15:33:00,
2013-05-29 10:43:00,72.0,-99.9,-100.00,North,-999,-999.0,-999.0,-999,0.00,,,0.00,,2013-05-29 15:43:00,
2013-05-29 10:53:00,72.0,-99.9,-100.00,North,-999,-999.0,-999.0,-999,0.00,,,0.00,,2013-05-29 15:53:00,
2013-05-29 11:00:00,70.0,-99.9,-100.00,North,-999,-999.0,-999.0,-999,0.01,,,0.01,,2013-05-29 16:00:00,
2013-05-29 11:22:00,70.0,-99.9,-100.00,North,-999,-999.0,-999.0,-999,0.01,,,0.01,,2013-05-29 16:22:00,
2013-05-29 11:33:00,70.0,-99.9,-100.00,North,-999,-999.0,-999.0,-999,0.01,,,0.01,,2013-05-29 16:33:00,
2013-05-29 11:43:00,70.0,-99.9,-100.00,North,-999,-999.0,-999.0,-999,0.01,,,0.01,,2013-05-29 16:43:00,
2013-05-29 11:52:00,70.0,-99.9,-100.00,North,-999,-999.0,-999.0,-999,0.01,,,0.01,,2013-05-29 16:52:00,
2013-05-29 12:00:00,65.0,-99.9,-100.00,North,-999,-999.0,-999.0,-999,0.22,,,0.23,,2013-05-29 17:00:00,
2013-05-29 12:22:00,65.0,-99.9,-100.00,North,-999,-999.0,-999.0,-999,0.22,,,0.23,,2013-05-29 17:22:00,
2013-05-29 12:33:00,65.0,-99.9,-100.00,North,-999,-999.0,-999.0,-999,0.22,,,0.23,,2013-05-29 17:33:00,
2013-05-29 12:43:00,65.0,-99.9,-100.00,North,-999,-999.0,-999.0,-999,0.22,,,0.23,,2013-05-29 17:43:00,
2013-05-29 12:53:00,65.0,-99.9,-100.00,North,-999,-999.0,-999.0,-999,0.22,,,0.23,,2013-05-29 17:53:00,
2013-05-29 13:00:00,64.0,-99.9,-100.00,North,-999,-999.0,-999.0,-999,0.02,,,0.25,,2013-05-29 18:00:00,
2013-05-29 13:22:00,64.0,-99.9,-100.00,North,-999,-999.0,-999.0,-999,0.02,,,0.25,,2013-05-29 18:22:00,
2013-05-29 13:32:00,64.0,-99.9,-100.00,North,-999,-999.0,-999.0,-999,0.02,,,0.25,,2013-05-29 18:32:00,
2013-05-29 13:42:00,64.0,-99.9,-100.00,North,-999,-999.0,-999.0,-999,0.02,,,0.25,,2013-05-29 18:42:00,
2013-05-29 13:52:00,64.0,-99.9,-100.00,North,-999,-999.0,-999.0,-999,0.02,,,0.25,,2013-05-29 18:52:00,
2013-05-29 14:00:00,66.0,-99.9,-100.00,North,-999,-999.0,-999.0,-999,0.18,,,0.43,,2013-05-29 19:00:00,
2013-05-29 14:22:00,66.0,-99.9,-100.00,North,-999,-999.0,-999.0,-999,0.18,,,0.43,,2013-05-29 19:22:00,
2013-05-29 14:32:00,66.0,-99.9,-100.00,North,-999,-999.0,-999.0,-999,0.18,,,0.43,,2013-05-29 19:32:00,
2013-05-29 14:44:00,66.0,-99.9,-100.00,North,-999,-999.0,-999.0,-999,0.18,,,0.43,,2013-05-29 19:44:00,
2013-05-29 14:53:00,66.0,-99.9,-100.00,North,-999,-999.0,-999.0,-999,0.18,,,0.43,,2013-05-29 19:53:00,
2013-05-29 15:00:00,67.0,-99.9,-100.00,North,-999,-999.0,-999.0,-999,0.11,,,0.54,,2013-05-29 20:00:00,
2013-05-29 15:23:00,67.0,-99.9,-100.00,North,-999,-999.0,-999.0,-999,0.11,,,0.54,,2013-05-29 20:23:00,
2013-05-29 15:33:00,67.0,-99.9,-100.00,North,-999,-999.0,-999.0,-999,0.11,,,0.54,,2013-05-29 20:33:00,
2013-05-29 15:42:00,67.0,-99.9,-100.00,North,-999,-999.0,-999.0,-999,0.11,,,0.54,,2013-05-29 20:42:00,
2013-05-29 15:53:00,67.0,-99.9,-100.00,North,-999,-999.0,-999.0,-999,0.11,,,0.54,,2013-05-29 20:53:00,
2013-05-29 16:00:00,74.0,-99.9,-100.00,North,-999,-999.0,-999.0,-999,0.00,,,0.54,,2013-05-29 21:00:00,
2013-05-29 16:22:00,74.0,-99.9,-100.00,North,-999,-999.0,-999.0,-999,0.00,,,0.54,,2013-05-29 21:22:00,
2013-05-29 16:34:00,74.0,-99.9,-100.00,North,-999,-999.0,-999.0,-999,0.00,,,0.54,,2013-05-29 21:34:00,
2013-05-29 16:44:00,74.0,-99.9,-100.00,North,-999,-999.0,-999.0,-999,0.00,,,0.54,,2013-05-29 21:44:00,
2013-05-29 16:53:00,74.0,-99.9,-100.00,North,-999,-999.0,-999.0,-999,0.00,,,0.54,,2013-05-29 21:53:00,
2013-05-29 17:00:00,74.0,-99.9,-100.00,North,-999,-999.0,-999.0,-999,0.00,,,0.54,,2013-05-29 22:00:00,
2013-05-29 17:23:00,74.0,-99.9,-100.00,North,-999,-999.0,-999.0,-999,0.00,,,0.54,,2013-05-29 22:23:00,
2013-05-29 17:34:00,74.0,-99.9,-100.00,North,-999,-999.0,-999.0,-999,0.00,,,0.54,,2013-05-29 22:34:00,
2013-05-29 17:43:00,74.0,-99.9,-100.00,North,-999,-999.0,-999.0,-999,0.00,,,0.54,,2013-05-29 22:43:00,
2013-05-29 17:53:00,74.0,-99.9,-100.00,North,-999,-999.0,-999.0,-999,0.00,,,0.54,,2013-05-29 22:53:00,
2013-05-29 18:00:00,76.0,-99.9,-100.00,North,-999,-999.0,-999.0,-999,0.00,,,0.54,,2013-05-29 23:00:00,
2013-05-29 18:22:00,76.0,-99.9,-100.00,North,-999,-999.0,-999.0,-999,0.00,,,0.54,,2013-05-29 23:22:00,
2013-05-29 18:33:00,76.0,-99.9,-100.00,North,-999,-999.0,-999.0,-999,0.00,,,0.54,,2013-05-29 23:33:00,
2013-05-29 18:43:00,76.0,-99.9,-100.00,North,-999,-999.0,-999.0,-999,0.00,,,0.54,,2013-05-29 23:43:00,
2013-05-29 18:53:00,76.0,-99.9,-100.00,North,-999,-999.0,-999.0,-999,0.00,,,0.54,,2013-05-29 23:53:00,
2013-05-29 19:00:00,75.0,-99.9,-100.00,North,-999,-999.0,-999.0,-999,0.00,,,0.54,,2013-05-30 00:00:00,
2013-05-29 19:22:00,75.0,-99.9,-100.00,North,-999,-999.0,-999.0,-999,0.00,,,0.54,,2013-05-30 00:22:00,
2013-05-29 19:32:00,75.0,-99.9,-100.00,North,-999,-999.0,-999.0,-999,0.00,,,0.54,,2013-05-30 00:32:00,
2013-05-29 19:42:00,75.0,-99.9,-100.00,North,-999,-999.0,-999.0,-999,0.00,,,0.54,,2013-05-30 00:42:00,
2013-05-29 19:53:00,75.0,-99.9,-100.00,North,-999,-999.0,-999.0,-999,0.00,,,0.54,,2013-05-30 00:53:00,
2013-05-29 20:00:00,73.0,-99.9,-100.00,North,-999,-999.0,-999.0,-999,0.00,,,0.54,,2013-05-30 01:00:00,
2013-05-29 20:22:00,73.0,-99.9,-100.00,North,-999,-999.0,-999.0,-999,0.00,,,0.54,,2013-05-30 01:22:00,
2013-05-29 20:32:00,73.0,-99.9,-100.00,North,-999,-999.0,-999.0,-999,0.00,,,0.54,,2013-05-30 01:32:00,
2013-05-29 20:42:00,73.0,-99.9,-100.00,North,-999,-999.0,-999.0,-999,0.00,,,0.54,,2013-05-30 01:42:00,
2013-05-29 20:53:00,73.0,-99.9,-100.00,North,-999,-999.0,-999.0,-999,0.00,,,0.54,,2013-05-30 01:53:00,
2013-05-29 21:00:00,65.0,-99.9,-100.00,North,-999,-999.0,-999.0,-999,0.07,,,0.61,,2013-05-30 02:00:00,
2013-05-29 21:22:00,65.0,-99.9,-100.00,North,-999,-999.0,-999.0,-999,0.07,,,0.61,,2013-05-30 02:22:00,
2013-05-29 21:32:00,65.0,-99.9,-100.00,North,-999,-999.0,-999.0,-999,0.07,,,0.61,,2013-05-30 02:32:00,
2013-05-29 21:42:00,65.0,-99.9,-100.00,North,-999,-999.0,-999.0,-999,0.07,,,0.61,,2013-05-30 02:42:00,
2013-05-29 21:52:00,65.0,-99.9,-100.00,North,-999,-999.0,-999.0,-999,0.07,,,0.61,,2013-05-30 02:52:00,
2013-05-29 22:00:00,64.0,-99.9,-100.00,North,-999,-999.0,-999.0,-999,0.16,,,0.77,,2013-05-30 03:00:00,
2013-05-29 22:22:00,64.0,-99.9,-100.00,North,-999,-999.0,-999.0,-999,0.16,,,0.77,,2013-05-30 03:22:00,
2013-05-29 22:33:00,64.0,-99.9,-100.00,North,-999,-999.0,-999.0,-999,0.16,,,0.77,,2013-05-30 03:33:00,
2013-05-29 22:43:00,64.0,-99.9,-100.00,North,-999,-999.0,-999.0,-999,0.16,,,0.77,,2013-05-30 03:43:00,
2013-05-29 22:53:00,64.0,-99.9,-100.00,North,-999,-999.0,-999.0,-999,0.16,,,0.77,,2013-05-30 03:53:00,
2013-05-29 23:00:00,63.0,-99.9,-100.00,North,-999,-999.0,-999.0,-999,0.07,,,0.84,,2013-05-30 04:00:00,
2013-05-29 23:23:00,63.0,-99.9,-100.00,North,-999,-999.0,-999.0,-999,0.07,,,0.84,,2013-05-30 04:23:00,
2013-05-29 23:33:00,63.0,-99.9,-100.00,North,-999,-999.0,-999.0,-999,0.07,,,0.84,,2013-05-30 04:33:00,
2013-05-29 23:42:00,63.0,-99.9,-100.00,North,-999,-999.0,-999.0,-999,0.07,,,0.84,,2013-05-30 04:42:00,
2013-05-29 23:53:00,63.0,-99.9,-100.00,North,-999,-999.0,-999.0,-999,0.07,,,0.84,,2013-05-30 04:53:00,